Home   Weather   Dickinson   Past weeks

Flag for USA Past Weather in Dickinson, North Dakota, USA — Yesterday and Last 2 Weeks

Now
1 °F

Light snow. Ice fog.


Feels Like: -25 °F
Forecast: -1 / 6 °F
Wind: 30 mph from Northwest

Location: Dickinson Municipal Airport

Current Time: Dec 6, 2016 at 11:15:52 am

Latest Report: Dec 6, 2016 at 9:56 am


Visibility: 1 mi

Pressure: 30.11 "Hg (27.30 "Hg at 735m altitude)

Humidity: 75%

Dew Point: -5 °F

Location of DickinsonLocation

Past Weather in Dickinson — Graph

°F

Dickinson Temperature Yesterday

Maximum temperature yesterday: 31 °F (at 3:56 am)
Minimum temperature yesterday: 5 °F (at 9:56 pm)
Average temperature yesterday: 18 °F

High & Low Weather Summary for the Past Weeks

 TemperatureHumidityPressure
High54 °F (Nov 26, 1:56 pm)100% (Nov 23, 8:56 am)30.26 "Hg (Nov 23, 8:56 am)
Low1 °F (Dec 6, 8:56 am)19% (Nov 26, 1:56 pm)29.11 "Hg (Nov 28, 2:02 pm)
Average27 °F80%29.87 "Hg
* Reported Nov 21 9:56 am — Dec 6 9:56 am, Dickinson, Weather by CustomWeather, © 2016

Note: Actual official high and low records may vary slightly from our data, if they occured in-between our weather recording intervals... More about our weather records

Advertising

Dickinson Weather History for the Previous 24 Hours

Scroll right to see more
 ConditionsComfort  
Time TempWeatherWind HumidityBarometerVisibility
9:56 am
Tue, Dec 6
1 °FLight snow. Ice fog.30 mph75%30.11 "Hg1 mi
8:56 am1 °FLight snow. Overcast.31 mph75%30.09 "Hg1 mi
7:56 am2 °FLight snow. Overcast.31 mph76%30.07 "Hg1 mi
6:56 am2 °FLight snow. Overcast.32 mph80%30.05 "Hg1 mi
5:56 am3 °FLight snow. Overcast.30 mph79%30.04 "Hg1 mi
4:56 am4 °FLight snow. Overcast.35 mph80%30.02 "Hg1 mi
3:56 am5 °FLight snow. Overcast.35 mph80%30.01 "Hg1 mi
2:56 am5 °FLight snow. Overcast.36 mph80%30.00 "Hg1 mi
1:56 am5 °FLight snow. Mostly cloudy.30 mph80%29.98 "Hg1 mi
12:56 am5 °FLight snow. Overcast.32 mph80%29.97 "Hg1 mi
11:56 pm
Mon, Dec 5
5 °FLight snow. Ice fog.31 mph83%29.96 "Hg1 mi
10:56 pm5 °FLight snow. Ice fog.31 mph83%29.95 "Hg1 mi
9:56 pm5 °FLight snow. Ice fog.36 mph83%29.93 "Hg1 mi
8:56 pm6 °FLight snow. Ice fog.33 mph83%29.91 "Hg1 mi
7:56 pm6 °FLight snow. Ice fog.31 mph83%29.91 "Hg1 mi
6:56 pm8 °FLight snow. Mostly cloudy.36 mph79%29.91 "Hg1 mi
5:56 pm8 °FLight snow. Mostly cloudy.33 mph79%29.89 "Hg1 mi
4:56 pm9 °FLight snow. Ice fog.32 mph84%29.87 "Hg1 mi
3:56 pm10 °FLight snow. Ice fog.32 mph84%29.85 "Hg1 mi
2:56 pm13 °FLight snow. Ice fog.29 mph84%29.81 "Hg1 mi
1:55 pm17 °FLight snow. Ice fog.25 mph83%29.77 "Hg1 mi
12:56 pm18 °FSnow. Ice fog.22 mph84%29.76 "Hg0 mi
12:03 pm19 °FLight snow. Ice fog.33 mph85%29.63 "Hg0 mi
Weather by CustomWeather, © 2016

See weather overviewHow to use our weather pages